TimeEST,TemperatureF,Dew PointF,Humidity,Sea Level PressureIn,VisibilityMPH,Wind Direction,Wind SpeedMPH,Gust SpeedMPH,PrecipitationIn,Events,Conditions,WindDirDegrees,DateUTC
12:52 AM,19.9,10.9,68,30.24,10.0,Calm,Calm,-,N/A,,Clear,0,2013-01-03 05:52:00
1:52 AM,17.6,12.2,79,30.21,10.0,Calm,Calm,-,N/A,,Partly Cloudy,0,2013-01-03 06:52:00
2:52 AM,17.1,10.9,77,30.24,10.0,Calm,Calm,-,N/A,,Partly Cloudy,0,2013-01-03 07:52:00
3:52 AM,15.1,12.0,88,30.22,9.0,Calm,Calm,-,N/A,,Partly Cloudy,0,2013-01-03 08:52:00
4:52 AM,15.1,12.0,88,30.24,8.0,Calm,Calm,-,N/A,,Scattered Clouds,0,2013-01-03 09:52:00
5:52 AM,15.1,12.9,91,30.25,7.0,SSW,3.5,-,N/A,,Partly Cloudy,210,2013-01-03 10:52:00
6:52 AM,15.1,12.9,91,30.26,7.0,Calm,Calm,-,N/A,,Clear,0,2013-01-03 11:52:00
7:52 AM,17.1,12.9,84,30.27,10.0,SSW,4.6,-,N/A,,Clear,210,2013-01-03 12:52:00
8:52 AM,19.0,15.1,85,30.27,10.0,SSW,3.5,-,N/A,,Clear,200,2013-01-03 13:52:00
9:52 AM,25.0,15.1,66,30.27,10.0,WSW,5.8,-,N/A,,Clear,240,2013-01-03 14:52:00
10:52 AM,28.9,10.9,47,30.28,10.0,WSW,9.2,-,N/A,,Clear,240,2013-01-03 15:52:00
11:52 AM,30.9,12.9,47,30.26,10.0,WSW,9.2,-,N/A,,Clear,240,2013-01-03 16:52:00
12:52 PM,33.1,16.0,50,30.25,10.0,SW,9.2,-,N/A,,Clear,230,2013-01-03 17:52:00
1:52 PM,34.0,19.9,56,30.24,10.0,West,16.1,20.7,N/A,,Mostly Cloudy,260,2013-01-03 18:52:00
2:52 PM,33.1,21.0,61,30.25,10.0,West,13.8,-,N/A,,Scattered Clouds,270,2013-01-03 19:52:00
3:52 PM,34.0,21.0,59,30.28,10.0,West,15.0,-,N/A,,Partly Cloudy,280,2013-01-03 20:52:00
4:52 PM,33.1,19.9,59,30.28,10.0,West,8.1,-,N/A,,Scattered Clouds,270,2013-01-03 21:52:00
5:52 PM,32.0,19.9,61,30.30,10.0,West,9.2,-,N/A,,Mostly Cloudy,280,2013-01-03 22:52:00
6:52 PM,32.0,21.0,64,30.32,10.0,WSW,5.8,-,N/A,,Overcast,240,2013-01-03 23:52:00
7:52 PM,32.0,21.0,64,30.32,10.0,WSW,6.9,-,N/A,,Overcast,250,2013-01-04 00:52:00
8:52 PM,32.0,21.9,66,30.32,10.0,West,8.1,-,N/A,,Scattered Clouds,260,2013-01-04 01:52:00
9:52 PM,30.9,21.9,69,30.33,10.0,West,6.9,-,N/A,,Overcast,260,2013-01-04 02:52:00
10:09 PM,30.2,23.0,75,30.31,10.0,West,11.5,-,N/A,,Overcast,270,2013-01-04 03:09:00
10:52 PM,30.0,23.0,75,30.34,10.0,West,12.7,-,N/A,,Overcast,280,2013-01-04 03:52:00
11:52 PM,30.0,23.0,75,30.34,10.0,SW,6.9,-,N/A,,Overcast,230,2013-01-04 04:52:00